Overview Statistics Trail Chart Weather Telemetry Raw packets
 

This is the latest recevied weather packets stored in our database for station/object YB4RWH-13. If no packets are shown the sender has not sent any weather packets the latest 10 day(s).

<< 103 104 105 106 107 108 >>
Time Temp. Humidity Pressure Rain* Wind** Luminosity Snow
1787758427 27.22° C 62% 1016.5 hPa - - - -
1787758127 27.78° C 62% 1016.5 hPa - - - -
1787757827 27.78° C 62% 1016.5 hPa - - - -
1787757527 27.78° C 61% 1016.7 hPa - - - -
1787757227 27.78° C 60% 1016.7 hPa - - - -
1787756927 27.78° C 60% 1016.7 hPa - - - -
1787756627 27.78° C 60% 1016.7 hPa - - - -
1787756327 27.78° C 60% 1016.7 hPa - - - -
1787756027 27.78° C 61% 1017 hPa - - - -
1787755727 27.78° C 61% 1016.9 hPa - - - -
1787755427 27.78° C 61% 1017 hPa - - - -
1787755127 27.78° C 62% 1016.9 hPa - - - -
1787754827 27.78° C 63% 1016.9 hPa - - - -
1787754529 27.78° C 64% 1016.9 hPa - - - -
1787754227 27.78° C 65% 1016.9 hPa - - - -
1787753927 27.78° C 66% 1016.9 hPa - - - -
1787753627 27.78° C 68% 1016.9 hPa - - - -
1787753327 27.78° C 67% 1016.8 hPa - - - -
1787753027 28.33° C 69% 1016.8 hPa - - - -
1787752727 28.33° C 72% 1016.9 hPa - - - -
1787752427 28.33° C 70% 1016.9 hPa - - - -
1787752127 28.33° C 71% 1016.7 hPa - - - -
1787751827 28.33° C 71% 1016.8 hPa - - - -
1787751527 28.33° C 70% 1016.8 hPa - - - -
1787751227 28.33° C 71% 1016.5 hPa - - - -

* Rain since midnight (hover to see other rain measurements)
** Current wind speed in m/s (hover to see current wind gust speed)